Theta_e
318 319 319 319 321 320 321 320 319 323 322 317 319 317 315 311 314 318 306 304 307 308 311 310 310 310 310 309 308 308 308 308 308 308 307 307 306 306 306 306 306 306 306 306 307 306 306 306 306
321 317 318 320 320 322 320 318 319 320 316 315 315 316 316 311 308 306 304 304 307 307 310 309 308 308 308 307 307 307 307 307 306 306 305 305 305 304 304 304 304 304 304 305 304 304 304 304 304
317 316 320 321 321 319 320 318 317 313 314 316 315 311 311 308 306 305 304 303 305 307 309 306 307 307 306 306 305 305 305 305 305 304 303 303 302 302 302 301 302 303 302 302 303 302 302 302 302
317 318 318 318 320 318 317 316 313 312 312 314 313 310 306 305 306 305 302 301 305 306 306 305 305 305 304 304 304 303 303 303 303 302 299 298 298 300 300 300 300 301 301 301 301 301 301 301 300
315 319 320 321 321 317 315 315 314 312 311 311 310 307 306 305 303 302 301 301 304 304 303 301 301 301 302 302 301 301 301 301 299 297 297 296 298 298 299 298 298 299 300 300 300 300 299 299 299
318 318 320 321 320 315 315 314 313 312 311 310 308 306 306 304 302 302 301 301 302 303 303 300 294 293 295 294 295 297 298 298 295 295 295 295 297 297 297 297 296 298 298 298 298 298 298 298 298
319 320 319 320 317 316 315 314 311 310 311 309 309 307 304 302 302 302 301 300 300 300 300 300 300 297 296 294 291 291 292 291 293 294 293 294 295 295 295 295 294 296 297 296 296 296 297 296 295
317 318 320 318 315 317 314 314 312 310 311 309 309 308 305 302 301 301 301 300 299 299 299 299 299 299 298 297 294 293 292 293 294 293 292 293 292 293 292 292 293 295 295 294 295 295 295 294 293
317 318 317 318 317 317 314 314 312 309 308 310 308 306 305 302 300 300 300 300 299 298 298 298 298 298 298 295 295 295 295 294 293 291 290 290 291 291 291 291 292 293 292 292 292 293 293 292 290
317 317 317 314 315 316 314 312 311 311 311 309 307 301 303 301 299 300 300 300 299 298 298 298 298 297 296 295 295 295 295 293 293 292 290 290 290 290 290 289 290 290 290 290 290 290 290 289 289
317 317 315 313 312 311 314 312 311 310 310 309 307 303 302 300 299 300 300 300 299 299 298 298 297 296 295 296 294 295 294 293 292 291 290 289 289 289 288 288 288 288 288 287 288 288 288 288 288
316 314 313 313 310 310 313 313 312 310 310 308 309 306 302 300 299 299 300 300 300 299 299 297 296 295 295 295 295 294 293 292 291 290 290 288 288 288 287 287 287 287 287 286 287 288 287 288 288
314 313 311 309 308 308 309 310 311 310 309 307 307 305 302 301 300 300 300 300 300 299 298 297 296 295 295 294 294 293 292 291 290 290 289 288 287 287 286 286 287 287 286 286 287 287 287 287 287
311 312 311 309 309 308 308 309 308 308 308 305 307 305 302 301 301 301 301 300 299 299 298 297 296 295 295 295 294 293 292 290 290 289 289 288 287 286 285 286 286 286 285 286 287 287 286 287 286
310 312 309 309 309 309 307 309 309 306 309 308 304 304 303 302 303 301 301 300 299 298 297 296 296 295 294 294 293 292 291 290 290 289 288 288 286 285 285 285 285 285 284 285 286 286 286 285 285
311 311 311 310 309 307 307 311 311 308 306 307 306 302 303 303 303 302 301 300 299 298 297 296 295 295 294 294 293 292 290 290 289 289 288 287 285 285 284 284 284 284 284 285 286 286 285 285 285
312 312 312 311 309 307 307 311 308 307 305 305 305 304 304 303 303 303 302 300 299 298 297 296 295 294 294 293 293 291 290 289 289 288 287 286 285 284 283 283 283 283 284 285 285 285 285 284 285
316 313 312 312 309 308 308 307 308 306 305 305 304 305 304 304 303 303 302 299 298 298 297 296 295 294 294 293 292 291 291 290 289 288 287 285 284 283 283 282 282 283 284 284 285 284 284 284 283
310 311 312 309 305 307 307 308 308 308 306 304 304 304 305 304 303 303 302 299 298 298 297 296 295 294 294 293 292 292 292 291 290 289 286 285 283 283 282 282 282 282 283 284 284 284 283 282 283
310 310 310 306 305 303 305 305 306 307 307 307 306 305 304 305 301 301 301 299 297 297 297 296 295 294 293 292 292 292 292 291 290 287 286 285 283 282 282 281 282 282 283 283 283 284 282 282 283
308 309 310 309 306 304 304 307 308 310 307 307 307 306 306 304 302 301 299 298 297 296 297 296 295 294 293 292 292 291 290 289 288 287 286 284 283 282 281 281 282 282 282 283 283 283 282 282 283
309 307 306 307 307 309 305 309 311 311 311 308 307 306 305 304 303 301 299 298 296 296 296 296 295 294 293 291 291 289 290 290 288 286 285 284 283 282 281 281 281 282 282 282 282 282 283 283 284
308 305 306 306 307 307 306 306 310 311 312 310 307 307 305 304 303 301 299 298 297 296 296 296 295 294 292 291 290 290 290 289 287 285 284 283 282 282 281 281 281 281 281 282 282 282 283 283 283
305 305 306 307 307 310 310 308 311 312 312 308 307 305 305 303 303 301 300 299 297 296 296 296 295 293 292 290 289 289 289 287 286 285 284 283 282 281 281 280 281 281 281 281 282 282 282 282 283
306 309 313 314 308 310 303 304 307 308 308 309 306 304 304 303 302 300 298 297 297 296 296 296 294 293 291 289 289 288 288 286 285 284 283 282 281 281 280 280 280 281 281 281 281 281 282 282 282
305 312 315 313 321 318 301 305 307 308 308 306 305 304 302 301 301 300 298 298 296 296 296 295 294 292 290 288 288 287 286 285 284 283 282 281 280 280 280 280 280 280 281 281 281 281 280 281 282
305 306 308 305 297 307 311 309 311 310 307 305 304 303 302 301 300 300 298 298 297 296 295 295 293 291 289 288 287 286 285 284 283 282 281 280 280 280 279 280 280 280 281 281 281 280 279 280 281
303 303 304 308 305 311 314 313 310 310 309 308 306 304 303 301 300 299 297 298 297 296 295 295 293 291 289 288 287 285 284 283 282 281 281 280 280 279 279 279 280 280 280 281 281 280 279 279 280
301 304 303 307 311 317 316 312 308 310 310 309 307 305 303 301 299 298 297 298 297 296 295 294 292 290 289 287 286 284 283 282 281 281 280 280 279 279 279 279 279 279 281 281 280 280 279 279 280
301 304 305 309 308 306 309 308 307 306 306 308 306 305 304 302 299 297 296 297 296 295 294 294 292 290 288 287 285 283 282 281 281 280 280 279 279 279 279 279 278 279 280 281 280 279 278 279 279
Wind_Speed
1 2 4 7 2 2 5 5 6 5 3 4 10 6 7 7 4 2 12 10 11 10 8 7 7 6 7 8 9 10 11 12 14 15 17 19 20 21 21 22 24 25 26 26 27 27 27 27 27
5 4 5 4 3 5 1 6 7 6 8 9 6 2 2 5 7 11 13 12 12 10 8 7 7 7 8 8 9 10 11 13 14 15 17 18 19 21 21 22 22 24 25 27 28 29 29 29 30
1 3 1 3 5 5 3 6 7 9 8 6 4 3 3 5 10 16 17 15 13 11 8 8 7 7 7 7 9 10 11 13 14 16 17 19 20 21 24 25 26 27 27 27 27 28 29 30 30
2 3 3 2 9 4 4 4 17 9 2 2 6 7 4 6 11 14 16 15 14 11 6 9 8 6 6 7 8 10 11 13 14 15 17 18 20 21 22 23 24 24 25 26 27 27 27 27 28
2 4 4 6 8 5 3 1 9 10 8 7 4 6 4 4 14 19 17 14 14 11 7 6 6 5 6 6 7 8 10 11 13 15 16 17 18 19 20 20 21 23 23 24 26 26 28 29 30
2 3 5 6 4 5 1 5 7 9 9 10 5 7 6 17 17 17 15 14 13 13 9 3 2 2 4 5 5 7 9 10 12 13 15 16 16 17 19 19 20 23 24 25 26 26 28 30 31
4 4 7 8 6 4 6 7 8 8 8 8 0 5 5 16 18 18 16 14 13 11 8 7 2 0 3 4 5 7 7 9 10 12 15 16 15 16 18 20 21 24 25 26 27 29 29 30 30
3 4 9 5 4 1 8 8 6 8 6 6 4 5 6 17 21 18 16 14 12 11 9 7 6 2 1 5 6 6 9 9 10 13 17 16 17 17 21 20 22 24 26 27 28 30 30 31 30
2 3 5 9 3 3 8 8 2 6 6 1 5 5 4 30 24 19 16 14 13 11 10 8 7 5 3 3 5 7 8 7 10 13 17 18 20 21 23 22 23 25 26 28 29 31 32 31 32
5 4 6 7 5 2 9 8 7 2 4 4 6 10 15 27 24 20 19 18 17 15 11 10 8 6 5 3 5 3 5 7 9 13 16 18 19 21 22 24 22 24 25 27 27 29 31 32 34
5 5 6 5 9 7 8 8 9 6 7 8 12 11 14 20 21 20 20 21 21 16 13 12 11 9 7 6 3 3 4 7 9 12 16 19 20 21 24 25 27 28 28 34 30 31 30 34 34
3 3 3 4 5 4 3 1 7 10 4 6 11 17 18 14 20 22 23 23 21 20 18 16 12 10 7 5 1 3 5 6 8 11 15 19 21 22 24 24 26 27 28 33 30 30 33 33 34
4 3 4 6 3 3 6 5 8 9 11 4 5 16 17 16 20 24 23 22 24 22 19 15 13 10 7 4 3 2 3 6 7 10 14 18 21 22 23 23 24 25 29 29 30 30 34 34 35
4 4 5 3 4 2 3 5 3 8 12 9 6 11 12 14 22 22 24 23 23 21 20 17 15 12 9 6 6 4 3 3 5 9 13 17 19 21 23 22 23 25 31 28 29 31 32 32 34
2 3 6 7 6 2 4 6 14 10 3 10 11 9 11 13 23 23 26 25 25 22 21 20 17 15 12 8 6 4 3 2 5 8 11 16 19 20 22 21 22 25 29 27 28 29 30 31 33
3 1 3 5 8 4 3 7 7 11 10 11 12 10 11 13 21 27 28 26 26 24 24 21 17 15 12 9 6 4 4 1 5 7 10 14 17 20 21 20 22 25 26 25 28 29 29 31 30
4 4 7 5 8 5 7 7 2 4 10 10 9 11 12 12 17 27 28 29 28 27 25 23 20 17 14 11 8 7 5 1 3 6 10 14 15 18 19 20 21 23 25 24 26 28 28 33 32
5 5 5 3 6 6 6 15 14 7 9 11 10 11 13 14 15 25 28 29 27 28 26 25 22 19 16 12 9 6 4 2 4 6 10 13 15 17 18 20 21 22 24 24 27 27 29 27 30
3 4 5 4 3 2 8 15 16 12 11 13 13 11 10 12 14 27 28 28 28 29 28 26 24 21 19 16 12 8 6 6 4 7 9 12 15 17 18 19 20 21 22 22 25 25 28 30 33
2 4 5 3 4 3 6 15 19 17 14 14 12 13 11 8 11 18 28 30 33 32 30 28 25 23 20 15 12 8 10 7 9 4 7 11 14 15 16 18 19 20 22 22 26 25 25 21 28
4 5 4 2 4 4 6 8 5 8 8 12 11 9 15 12 14 16 23 28 31 32 31 30 28 25 22 18 17 14 10 7 3 3 4 9 12 13 15 16 17 18 20 22 24 24 24 21 22
5 4 3 2 2 4 1 6 5 8 7 5 7 7 8 10 11 15 20 26 30 31 31 30 28 26 23 22 18 14 9 7 7 4 4 6 10 12 14 15 15 17 19 21 22 23 24 23 22
2 3 4 1 1 3 2 1 7 4 4 1 3 2 7 9 9 15 19 28 28 32 32 30 27 25 25 22 17 16 12 9 6 2 1 5 7 10 13 13 15 17 19 21 21 25 24 24 23
9 4 3 2 1 1 6 6 4 4 3 4 3 1 2 7 8 10 22 27 28 31 29 29 28 26 24 21 17 15 13 10 8 4 2 2 4 7 11 12 14 16 18 21 22 23 23 24 25
3 4 3 3 2 6 4 1 8 10 8 4 9 7 5 6 7 9 11 19 24 30 31 31 29 27 25 22 19 16 14 11 10 6 3 1 2 5 9 11 14 16 18 20 21 21 21 23 25
7 6 5 7 4 3 3 6 6 8 1 5 6 7 8 8 6 8 8 18 23 30 32 30 28 27 26 23 20 19 16 13 10 7 4 1 2 4 7 10 12 14 16 18 20 21 21 22 23
5 3 1 5 1 3 5 7 9 5 7 7 8 8 8 8 8 8 8 20 25 28 31 33 31 28 28 25 22 19 17 14 11 7 4 3 2 4 7 8 11 14 16 17 19 21 21 21 22
1 2 4 2 2 5 4 2 6 2 4 5 5 7 7 7 8 8 8 17 24 27 31 30 31 30 30 26 24 21 18 15 12 9 6 3 3 4 5 8 11 13 15 17 19 21 20 21 21
2 2 1 2 3 5 1 5 7 8 5 6 5 7 8 9 8 7 7 16 20 25 29 30 30 30 32 30 27 23 20 16 13 10 7 4 3 4 5 7 9 12 14 17 19 19 20 20 21
1 6 7 5 5 3 3 6 2 6 5 3 6 4 4 7 8 7 8 15 20 22 26 30 31 31 33 32 29 26 23 19 16 12 9 6 4 4 5 5 7 11 13 17 19 19 18 19 21
Wind_Direction
153 270 295 258 284 190 256 134 107 104 94 54 14 37 73 43 10 142 128 129 123 120 105 103 86 66 54 46 41 35 31 27 25 24 23 22 21 17 13 9 6 3 0 357 353 350 348 344 339
136 251 254 270 257 256 324 100 142 133 75 82 80 78 93 80 83 121 130 142 135 124 122 113 90 71 57 48 39 34 30 26 24 23 23 21 19 15 12 8 5 2 359 356 353 348 345 343 339
196 251 273 213 228 270 52 123 145 91 113 144 104 358 16 94 113 141 136 143 138 126 134 116 97 77 64 51 39 31 28 25 22 21 20 18 14 11 8 5 3 360 357 353 349 345 343 341 338
297 230 274 272 262 73 45 147 110 118 108 165 97 119 75 12 132 140 144 142 141 132 153 125 107 92 74 52 41 32 26 24 21 19 16 12 9 8 4 2 359 355 352 347 345 342 339 336 333
225 260 241 220 267 93 65 122 121 153 156 181 178 139 101 131 120 134 146 145 147 144 144 141 122 103 84 63 46 35 29 24 19 16 12 7 5 3 359 355 353 352 346 343 343 340 337 337 335
262 234 263 255 201 95 109 131 147 181 158 144 175 142 116 151 148 152 151 149 153 155 161 163 144 124 82 57 45 35 28 24 18 13 9 4 1 356 353 350 347 348 346 344 342 338 338 338 335
232 248 267 315 332 125 171 154 176 194 152 155 152 176 104 152 163 158 155 153 158 162 166 176 219 48 25 22 16 16 21 20 15 10 6 3 358 351 349 348 346 345 343 342 342 340 338 337 333
314 263 270 282 286 214 141 160 183 198 172 106 172 221 167 168 163 159 161 162 162 169 179 185 178 149 253 318 341 351 9 16 11 9 3 1 358 353 353 346 345 344 342 344 342 339 337 336 332
285 284 250 253 175 104 122 175 279 340 112 167 140 56 67 150 155 162 164 168 176 184 184 184 184 198 220 311 315 3 344 0 358 358 2 2 0 352 352 346 345 344 344 343 343 339 337 335 333
208 212 273 13 61 119 150 201 158 150 204 184 161 100 134 148 159 170 178 181 188 192 185 192 194 196 211 200 280 333 332 349 350 350 358 3 359 352 348 349 344 344 344 342 341 338 336 334 332
214 245 5 56 32 1 151 201 153 177 220 204 195 163 165 160 172 184 192 193 193 187 187 195 199 208 199 222 252 306 324 343 351 347 353 360 358 353 353 351 349 348 345 342 339 338 335 332 331
277 37 10 26 36 335 170 147 214 192 228 358 196 173 165 177 186 193 196 196 184 185 191 200 200 208 210 207 325 309 318 348 347 350 346 357 357 354 353 351 348 345 343 342 339 335 333 332 331
230 133 58 65 62 302 7 265 247 233 230 131 287 139 169 180 192 201 200 199 183 186 189 199 194 201 215 186 222 277 333 323 355 340 345 354 355 352 352 351 347 344 338 347 337 336 335 332 331
10 30 109 150 172 159 227 248 73 245 232 162 177 159 175 187 194 196 201 197 182 186 190 197 197 195 209 187 209 217 255 322 333 340 347 349 352 351 350 352 347 342 343 345 339 336 334 332 330
117 252 183 189 185 190 208 255 231 222 189 195 179 202 187 193 197 198 199 196 184 190 190 194 197 197 201 199 212 214 261 344 336 345 351 340 350 349 351 353 347 341 346 343 340 337 335 333 332
221 205 238 100 141 132 203 264 195 206 189 212 191 196 204 199 201 200 198 197 188 189 191 192 192 198 198 193 209 215 263 329 333 348 341 340 350 350 353 353 346 344 347 346 342 338 336 337 334
221 255 202 179 186 124 200 275 153 335 172 214 225 207 207 204 199 199 197 193 188 188 189 191 194 196 194 196 203 210 236 238 323 334 332 345 348 353 355 355 348 348 349 347 343 339 341 339 336
203 218 240 243 179 207 222 257 269 226 219 222 227 228 207 206 201 195 195 190 191 189 190 192 196 195 194 195 198 213 248 302 320 322 332 345 351 354 359 358 353 352 351 349 346 344 342 343 337
349 339 334 95 30 250 238 259 268 262 219 222 217 221 230 207 181 191 192 188 189 189 190 191 191 192 193 190 185 202 220 196 248 292 332 340 352 357 3 358 358 356 351 349 347 347 347 346 347
218 275 270 73 131 180 286 283 267 259 250 232 210 218 216 203 172 176 181 187 188 187 190 192 194 193 195 190 187 190 180 204 221 282 340 333 351 359 2 1 360 358 352 353 351 355 354 350 353
218 217 244 229 208 214 296 282 251 256 233 236 232 205 206 194 179 178 179 183 185 189 191 193 194 194 196 185 193 197 193 203 210 165 294 332 352 0 3 3 3 358 359 354 352 351 1 348 350
222 338 95 89 36 267 241 285 263 258 264 218 231 225 199 189 180 178 178 184 183 191 194 194 193 193 193 192 195 186 178 183 178 225 300 343 352 360 2 5 5 1 360 357 352 352 349 352 345
159 113 107 105 238 335 212 338 265 160 258 54 67 231 227 193 180 179 180 184 186 189 194 195 193 192 192 197 189 187 187 188 186 190 351 351 356 358 353 8 5 3 2 357 353 351 352 353 344
146 104 87 92 45 359 210 166 270 217 190 124 129 54 322 165 175 158 171 176 183 188 192 191 191 190 194 198 188 184 184 180 171 175 158 357 2 3 348 9 9 4 4 359 356 355 357 353 352
223 135 355 343 15 223 51 8 252 287 296 176 181 168 169 169 163 153 154 166 175 180 188 189 190 184 191 194 191 183 185 182 183 178 181 120 14 4 0 11 14 5 5 1 0 357 358 354 355
197 169 169 210 202 242 69 228 248 219 80 81 112 134 160 167 169 175 162 167 175 180 186 182 186 181 189 191 189 185 184 178 180 179 167 143 48 11 15 17 18 8 8 5 5 0 358 354 356
176 189 136 95 65 59 223 265 299 295 207 187 195 174 180 182 174 175 170 171 177 179 180 183 184 183 190 191 190 185 179 180 177 172 165 130 58 32 29 24 22 14 9 11 6 1 358 358 356
153 201 86 348 212 256 270 252 238 197 180 194 215 209 169 157 164 172 173 174 180 182 182 184 186 183 190 191 191 184 181 181 175 171 164 145 90 56 37 32 28 16 17 15 7 360 357 0 0
163 199 247 149 178 197 245 249 224 203 185 180 119 166 165 165 173 179 170 180 181 183 180 184 183 181 186 189 188 183 180 179 174 172 165 150 115 78 50 42 30 14 26 16 5 2 359 2 1
273 199 167 146 231 232 138 266 37 111 112 81 92 124 123 158 171 169 165 169 174 177 180 183 183 186 187 187 186 183 179 177 175 171 167 158 140 103 76 50 33 22 35 22 4 3 3 3 2